CALSPHERE 1 1 00900U 64063C 26254.22195688 .00000437 00000+0 43415-3 0 9991 2 00900 90.2175 73.7633 0027078 35.7239 16.1828 13.76700886 83268 CALSPHERE 2 1 00902U 64063E 26253.99292383 .00000044 00000+0 53514-4 0 9992 2 00902 90.2288 77.8141 0018000 344.3374 179.6968 13.52906164867865 LCS 1 1 01361U 65034C 26254.30579491 .00000013 00000+0 62356-3 0 9994 2 01361 32.1457 332.5539 0011273 67.3241 292.8447 9.89310637218410 TEMPSAT 1 1 01512U 65065E 26253.22121712 .00000024 00000+0 31185-4 0 9994 2 01512 90.0051 212.6082 0070224 11.5052 54.8324 13.33598189971380 CALSPHERE 4A 1 01520U 65065H 26254.04280557 .00000081 00000+0 13869-3 0 9998 2 01520 89.8910 121.6248 0068310 220.4011 238.0543 13.36290516974176 OPS 5712 (P/L 160) 1 02826U 67053A 26254.25703769 .00005121 00000+0 70746-3 0 9992 2 02826 69.9167 187.1638 0004166 273.6893 86.3779 14.78679322 78955 OPS 5712 (P/L 153) 1 02874U 67053H 26253.55285417 .00000018 00000+0 51261-4 0 9994 2 02874 69.9730 292.3307 0004505 80.4822 279.6793 13.96838688 18711 RIGIDSPHERE 2 (LCS 4) 1 05398U 71067E 26254.20476836 .00000401 00000+0 12455-3 0 9995 2 05398 87.6220 314.9367 0057799 308.7507 50.8534 14.37953195886242 COSMOS 2493 (SKRL-756 1) 1 39490U 13078A 26254.27086683 .00002681 00000+0 19950-3 0 9996 2 39490 82.4158 176.9519 0011857 319.5922 40.4421 15.02540993690880 COSMOS 2494 (SKRL-756 2) 1 39491U 13078B 26254.24541308 .00002616 00000+0 18063-3 0 9996 2 39491 82.4156 166.0059 0014463 273.6052 86.3520 15.05309505691759